Regional Weather Roundup
Issued by NWS

Home | Current Version | Previous Version | Text Only | Print | Product List | Glossary On
Versions: 1 2 3 4 5 6 7 8 9 10 11 12 13 14 15 16 17 18 19 20 21 22 23 24 25 26 27 28 29 30 31 32 33 34 35 36 37 38 39 40 41 42 43 44 45 46 47 48 49 50
000
ASUS43 KMPX 281101
RWRMN
WEATHER ROUNDUP FOR MINNESOTA
NATIONAL WEATHER SERVICE TWIN CITIES/CHANHASSEN MN
600 AM CDT TUE APR 28 2015


NOTE: "FAIR" INDICATES FEW OR NO CLOUDS BELOW 12,000 FEET WITH NO
SIGNIFICANT WEATHER AND/OR OBSTRUCTIONS TO VISIBILITY. N/A MEANS
CURRENT SKY AND/OR WEATHER CONDITIONS ARE NOT AVAILABLE.

MNZ060>063-068>070-281200-
   Twin Cities Metro

CITY           SKY/WX    TMP DP  RH WIND       PRES   REMARKS
TWIN CITIES    MOCLDY    48  31  51 S3        30.15S
ST PAUL        PTCLDY    42  34  73 E3        30.16S
CRYSTAL        CLEAR     40  32  73 CALM      30.14S
BLAINE         CLEAR     39  34  81 CALM      30.14F
LAKEVILLE      PTCLDY    36  32  87 CALM      30.16R
EDEN PRAIRIE   CLEAR     42  31  64 SW3       30.14S
SOUTH ST PAUL  PTCLDY    41  34  76 CALM      30.15S
LAKE ELMO      FAIR      36  32  87 CALM      30.16S
$$
MNZ001>005-007-008-013>017-022>024-027-028-281200-
   Northwest Minnesota

CITY           SKY/WX    TMP DP  RH WIND       PRES   REMARKS
BEMIDJI        RAIN      44  43  96 N6        30.23S
HALLOCK        FOG       37  37 100 CALM      30.28R VSB<1/4
ROSEAU         CLEAR     43  37  81 CALM      30.25F
WARROAD        MOCLDY    43  37  81 CALM      30.26S
THIEF RVR FALL CLOUDY    41  37  87 N6        30.27S
CROOKSTON      SNOW      37  36  93 N6        30.28S VSB 1/4
FOSSTON        CLOUDY    43  43 100 N8        30.25R
DETROIT LAKES  LGT RAIN  45  45 100 NW8       30.23S
MOORHEAD       PTCLDY    43  41  93 N10       30.27S FOG
PARK RAPIDS    LGT RAIN  48  45  89 N10       30.21R
MAHNOMEN       CLOUDY    45  44  97 N9        30.24R
$$
MNZ006-009>011-018-025>026-281200-
   North Central Minnesota

CITY           SKY/WX    TMP DP  RH WIND       PRES   REMARKS
BAUDETTE       CLOUDY    42  39  89 N10       30.24S
FLAG ISLAND    CLOUDY    43  39  87 N7        30.24S
INTL FALLS     LGT RAIN  45  43  93 N7        30.21R
WASKISH        CLOUDY    43  43 100 CALM      30.24R
BIG FORK       RAIN      46  43  87 NW3       30.21R
LONGVILLE      DRIZZLE   48  45  87 NW6       30.20R
GRAND RAPIDS   CLOUDY    48  39  71 N8        30.19R
CRANE LAKE     CLOUDY    46  43  87 CALM      30.20S
ORR            CLOUDY    48  41  76 CALM      30.17R
COOK           DRIZZLE   48  41  76 CALM      30.18R
WALKER         RAIN      46  43  92 NW6       30.22R
$$
MNZ012-019>021-037-281200-
   Northeast Minnesota

CITY           SKY/WX    TMP DP  RH WIND       PRES   REMARKS
DULUTH         PTCLDY    39  26  59 CALM      30.15R
ELY            MOCLDY    32  28  86 CALM      30.16S
HIBBING        CLOUDY    49  39  68 N15       30.16R
EVELETH        MOCLDY    36  32  87 CALM      30.17R
DULUTH HARBOR  CLEAR     36  34  93 CALM      30.17S
TWO HARBORS    CLEAR     34  28  80 NW3       30.14R
SILVER BAY     CLEAR     28  27  93 CALM      30.14R
GRAND MARAIS     N/A     35  31  85 CALM      30.15R
G MARAIS ARPRT PTCLDY    32  25  74 CALM      30.14S
$$
MNZ029>031-032-039>041-046>048-054>057-064-281200-
   West Central Minnesota

CITY           SKY/WX    TMP DP  RH WIND       PRES   REMARKS
FERGUS FALLS   RAIN      45  45 100 N13       30.24S
WHEATON        LGT RAIN  45  43  93 NW14G20   30.26R
MORRIS         CLOUDY    48  43  81 NW9       30.20R
ALEXANDRIA     CLOUDY    51  43  74 N14       30.20S
ELBOW LAKE     DRIZZLE   46  44  91 NW10      30.22R
WADENA         CLOUDY    46  45  93 N6        30.20S
GLENWOOD       CLOUDY    50  43  76 NW12      30.19S
APPLETON       CLOUDY    52  43  71 NW8       30.21R
BENSON         CLOUDY    48  41  76 N5        30.20S
ORTONVILLE     CLOUDY    48  41  76 NW13G18   30.23R
MADISON        CLOUDY    52  41  66 NW16      30.21S
WILLMAR        FAIR      45  37  76 NW7       30.19S
$$
MNZ033>034-036-042>043-049>051-058-059-281200-
   Central Minnesota

CITY           SKY/WX    TMP DP  RH WIND       PRES   REMARKS
ST CLOUD       PTCLDY    45  34  65 NW10      30.16R
SAUK CENTRE    CLOUDY    49  42  76 NW13      30.18S
PAYNESVILLE    MOCLDY    46  37  73 CALM      30.18S
AITKIN         MOCLDY    48  39  71 N3        30.15R
PINE RIVER     DRIZZLE   50  45  81 NW8       30.23R
BRAINERD       CLOUDY    52  43  71 NW17      30.18R
STAPLES        DRIZZLE   48  45  87 NW9       30.21R
LONG PRAIRIE   RAIN      50  43  76 NW12G23   30.20R
LITTLE FALLS   MOCLDY    46  36  66 CALM      30.18R
LITCHFIELD     FAIR      46  34  61 NW7       30.17R
BUFFALO        CLEAR     38  31  76 CALM      30.16S
MAPLE LAKE     PTCLDY    44  33  64 NW6       30.16S
$$
MNZ037-044-045-052-053-281200-
   East Central Minnesota

CITY           SKY/WX    TMP DP  RH WIND       PRES   REMARKS
PRINCETON      PTCLDY    34  30  86 CALM      30.15R
MORA           PTCLDY    34  30  86 CALM      30.16S
CAMBRIDGE      CLEAR     39  30  70 CALM      30.12F
RUSH CITY      CLEAR     35  29  79 CALM      30.15R
MOOSE LAKE     PTCLDY    34  30  86 CALM      30.14R
HINCKLEY       FAIR      32  28  86 CALM      30.14S
CLOQUET        PTCLDY    30  27  86 CALM      30.15R
MCGREGOR       MOCLDY    41  32  70 N5        30.17R
$$
MNZ071>073-080-081-089-090-097-098-281200-
   Southwest Minnesota

CITY           SKY/WX    TMP DP  RH WIND       PRES   REMARKS
MONTEVIDEO     CLOUDY    50  43  76 NW8       30.21R
GRANITE FALLS  MOCLDY    47  40  77 W8        30.21S
CANBY          CLOUDY    49  42  77 NW6       30.22S
MARSHALL       CLOUDY    45  37  76 NW10      30.20S
REDWOOD FALLS  PTCLDY    41  36  82 NW10      30.18S
OLIVIA         PTCLDY    37  34  87 NW7       30.18R
PIPESTONE      PTCLDY    45  39  81 N7        30.20S
WINDOM         CLEAR     43  37  81 W12       30.19S
WORTHINGTON    CLEAR     39  32  75 NW10      30.21S
JACKSON        CLEAR     41  32  70 NW7       30.20R
TRACY          PTCLDY    46  40  80 W7        30.21S
SLAYTON        CLEAR     39  37  90 CALM      30.22S
$$
MNZ065>067-074>077-082>085-091>093-281200-
   South Central Minnesota

CITY           SKY/WX    TMP DP  RH WIND       PRES   REMARKS
MANKATO        CLEAR     45  25  45 W3        30.17S
NEW ULM        CLEAR     36  23  60 W7        30.17S
ST JAMES       CLEAR     41  32  70 W8        30.19S
FAIRMONT       CLEAR     43  25  49 NW10      30.17S
GLENCOE        PTCLDY    44  29  56 CALM      30.15S
FARIBAULT      PTCLDY    36  30  80 CALM      30.16S
OWATONNA       PTCLDY    37  28  70 CALM      30.16S
WASECA         PTCLDY    37  28  70 CALM      30.18R
ALBERT LEA     PTCLDY    39  32  75 CALM      30.17S
$$
MNZ078>079-086>088-094>096-281200-
   Southeast Minnesota

CITY           SKY/WX    TMP DP  RH WIND       PRES   REMARKS
ROCHESTER      PTCLDY    46  26  45 NW6       30.18R
RED WING       PTCLDY    36  30  80 E6        30.15S
STANTON        PTCLDY    35  28  74 CALM      30.15R
DODGE CENTER   PTCLDY    39  30  70 W3        30.16S
WINONA         CLEAR     37  34  87 CALM      30.17S
AUSTIN         PTCLDY    41  30  65 N3        30.16S
PRESTON        PTCLDY    43  29  58 NW5       30.16S
$$
ABBREVIATIONS USED IN REMARKS
   TC - TEMPERATURES IN CELSIUS
  WCI - WIND CHILL INDEX
   HX - HEAT INDEX
  VSB - VISIBILITY
$$


USA.gov is the U.S. government's official web portal to all federal, state and local government web resources and services.